Miscellaneous Local Product
Issued by NWS North Platte, NE

Home | Current Version | Previous Version | Text Only | Print | Product List | Glossary On
Versions: 1 2 3 4 5 6 7 8 9 10 11 12 13 14 15 16 17 18 19 20 21 22 23 24 25 26 27 28 29 30 31 32 33 34 35 36 37 38 39 40 41 42 43 44 45 46 47 48 49 50
000
AXUS43 KLBF 312310
MISLBF


WESTERN AND NORTH CENTRAL NEBRASKA HOURLY WEATHER ROUNDUP
NATIONAL WEATHER SERVICE NORTH PLATTE NE
600 PM CDT MON AUG 31 2015

NOTE: "FAIR" INDICATES FEW OR NO CLOUDS BELOW 12,000 FEET WITH NO
SIGNIFICANT WEATHER AND/OR OBSTRUCTIONS TO VISIBILITY.

NOTE: STATIONS NOT REPORTING VARIABLES SUCH AS SKY/WEATHER OR
PRESSURE ARE PROVIDED BY THE NEBRASKA DEPARTMENT OF
ROADS...RAWS...AND APRS NETWORKS...AND ARE NOT UNDER
NATIONAL WEATHER SERVICE QUALITY CONTROL.

...OBSERVATIONS IN AND NEAR THE EASTERN PANHANDLE OF NEBRASKA...

CITY           SKY/WX    TMP DP  RH WIND       PRES   REMARKS
PINE RIDGE     PTSUNNY   80  57  45 E6        29.97F
CHADRON        MOSUNNY   82  53  36 E6        29.94F
ALLIANCE       PTSUNNY   85  49  28 E8        29.99S
SIDNEY         PTSUNNY   85  48  27 E13       30.02F
CRESCENT LAKE    N/A     81  56  41 E8          N/A
BIG SPRINGS      N/A     84  55  36 N3          N/A
$$

...OBSERVATIONS IN NORTH CENTRAL NEBRASKA...

CITY           SKY/WX    TMP DP  RH WIND       PRES   REMARKS
VALENTINE      PTSUNNY   76  60  57 N8        29.95R
THEDFORD       PTSUNNY   84  61  44 N10G16    29.95S
AINSWORTH      PTSUNNY   81  63  55 NE6       29.94F
O`NEILL        SUNNY     90  61  38 N3        29.88F
ORD            SUNNY     89  64  43 S10       29.88R HX  90
BROKEN BOW     MOSUNNY   90  64  42 SW5       29.90S HX  91
SPRINGVIEW       N/A     81  65  58 CALM        N/A
SARGENT          N/A     90  67  47 CALM        N/A  HX  93
CHAMBERS         N/A     89  61  39 S3          N/A
EWING            N/A     84  72  67 S3          N/A
$$

...OBSERVATIONS IN SOUTHWEST NEBRASKA AND FAR NORTHEAST COLORADO...

CITY           SKY/WX    TMP DP  RH WIND       PRES   REMARKS
WRAY           CLOUDY    93  47  20 N16G22    29.95S HX  90
HOLYOKE        FAIR      91  50  24 NE10      29.97S
IMPERIAL       MOSUNNY   91  56  30 N9        29.92F
OGALLALA       CLOUDY    85  53  32 N15       29.94F
NORTH PLATTE   SUNNY     89  65  44 SE6       29.90S HX  91
MCCOOK         SUNNY     97  52  21 SE9       29.86F HX  94
LEXINGTON      SUNNY     90  65  43 SE13G18   29.89F HX  91
PAXTON           N/A     85  66  52 CALM        N/A
BRADY            N/A     87  69  54 N5          N/A  HX  91
CALLAWAY         N/A     86  73  64 S6          N/A  HX  93
$$

...OBSERVATIONS IN CENTRAL LINCOLN COUNTY AREA...

CITY           SKY/WX    TMP DP  RH WIND       PRES   REMARKS
N.P. AIRPORT   SUNNY     89  65  44 SE6       29.90S HX  91
N.P. DOWNTOWN    N/A     90  63  40 NE5         N/A  HX  91
N.P. SOUTHEAST   N/A     92  63  37 CALM        N/A  HX  93
N.P. HILLCREST   N/A     89  60  37 E10         N/A
$$

...SOME OBSERVATIONS FROM AROUND THE REGION...

CITY           SKY/WX    TMP DP  RH WIND       PRES   REMARKS
DENVER         TSTM      66  56  70 W22G29    30.12R
LARAMIE        CLOUDY    65  47  52 SE13      30.21F
CHEYENNE       LGT RAIN  66  48  52 NW14G23   30.18R
SCOTTSBLUFF    MOSUNNY   84  52  33 SE12      29.98S
RAPID CITY     MOSUNNY   73  57  57 SE10      29.96F
PIERRE         PTSUNNY   77  60  55 NE6       29.88F
WINNER         FAIR      78  62  57 NW10      29.90F
SIOUX FALLS    MOSUNNY   82  69  64 S13       29.88R
OMAHA          MOSUNNY   85  66  53 S12       29.91S
GRAND ISLAND   SUNNY     88  67  49 SE10      29.90S HX  91
KANSAS CITY    MOSUNNY   88  69  53 S12       29.94S HX  92
WICHITA        MOSUNNY   94  58  29 S7        29.90S HX  93
HAYS           SUNNY     97  52  21 S17G25    29.87S HX  94
LIBERAL        SUNNY     93  52  24 S22G28    29.92S HX  90
GOODLAND       SUNNY     95  44  17 E12G18    29.91F HX  91
$$



USA.gov is the U.S. government's official web portal to all federal, state and local government web resources and services.